This demonstration page uses our WeatherBlox Daily Observations layout. Learn more.

39.92423, -83.80882

Hourly Observations for June 9, 2016

Temp ( °F °C ) Dew Point ( °F °C ) Humidity (%) Winds ( mph kmh ) Pressure ( in mb ) Visibility ( mi km ) Precip ( " mm )
12:56 am 00:56 Clear 58 14.4 41 5 53 53 NW 6 9 30.03 1017 10 16.0934 0 0
1:56 am 01:56 Clear 57 13.8 41 5 56 56 WNW 5 7 30.03 1017 10 16.0934 0 0
2:56 am 02:56 Clear 53 11.6 44 6.6 72 72 Calm 30.04 1017 10 16.0934 0 0
3:56 am 03:56 Clear 51 10.5 47 8.3 86 86 WSW 3 6 30.04 1017 10 16.0934 0 0
4:56 am 04:56 Clear 50 10 46 7.7 86 86 SW 3 6 30.06 1018 10 16.0934 0 0
5:56 am 05:56 Clear 49 9.4 47 8.3 93 93 Calm 30.07 1018 10 16.0934 0 0
6:56 am 06:56 Sunny 49 9.4 45 7.2 86 86 Calm 30.09 1019 10 16.0934 0 0
7:56 am 07:56 Sunny 57 13.8 45 7.2 65 65 WNW 3 6 30.1 1019 10 16.0934 0 0
8:56 am 08:56 Sunny 61 16.1 43 6.1 52 52 NNW 3 6 30.11 1020 10 16.0934 0 0
9:56 am 09:56 Sunny 65 18.3 41 5 42 42 Calm 30.12 1020 10 16.0934 0 0
10:56 am 10:56 Sunny 68 20 42 5.5 39 39 WNW 5 7 30.11 1020 10 16.0934 0 0
11:56 am 11:56 Sunny 72 22.2 44 6.6 37 37 VRB 5 7 30.11 1020 10 16.0934 0 0
12:56 pm 12:56 Sunny 74 23.3 45 7.2 36 36 WNW 7 11 30.11 1020 10 16.0934 0 0
1:56 pm 13:56 Sunny 75 23.8 47 8.3 37 37 W 7 11 30.09 1019 10 16.0934 0 0
2:56 pm 14:56 Mostly Sunny 78 25.5 47 8.3 34 34 NW 8 13 30.07 1018 10 16.0934 0 0
3:56 pm 15:56 Sunny 79 26.1 46 7.7 31 31 VRB 3 6 30.05 1018 10 16.0934 0 0
4:56 pm 16:56 Sunny 79 26.1 47 8.3 32 32 SSW 7 11 30.04 1017 10 16.0934 0 0
5:56 pm 17:56 Sunny 78 25.5 50 10 38 38 Calm 30.03 1017 10 16.0934 0 0
6:56 pm 18:56 Sunny 78 25.5 49 9.4 36 36 ESE 3 6 30.01 1016 10 16.0934 0 0
7:56 pm 19:56 Sunny 77 25 49 9.4 37 37 S 3 6 30 1016 10 16.0934 0 0
8:56 pm 20:56 Mostly Sunny 74 23.3 51 10.5 44 44 S 5 7 30 1016 10 16.0934 0 0
9:56 pm 21:56 Partly Cloudy 73 22.7 51 10.5 46 46 S 5 7 30.01 1016 10 16.0934 0 0
10:56 pm 22:56 Mostly Cloudy 71 21.6 54 12.2 55 55 WSW 5 7 30.04 1017 10 16.0934 0 0
11:56 pm 23:56 Cloudy 71 21.6 54 12.2 55 55 Calm 30.04 1017 10 16.0934 0 0

Powered by AerisWeather